Waarnemingen

Advertentie
Mijn weer
Garmisch-Partenkirchen, Duitsland (10963): temperatuur & dauwpunt: 05.12.2018 17:00:00 - 11.12.2018 17:00:00 (CET)Garmisch-Partenkirchen, Duitsland (10963): temperatuur 5cm & temperatuur -5cm: 05.12.2018 17:00:00 - 11.12.2018 17:00:00 (CET)Garmisch-Partenkirchen, Duitsland (10963): temperatuur -20cm & temperatuur -100cm: 05.12.2018 17:00:00 - 11.12.2018 17:00:00 (CET)Garmisch-Partenkirchen, Duitsland (10963): windsnelheid & windstoten: 05.12.2018 17:00:00 - 11.12.2018 17:00:00 (CET)Garmisch-Partenkirchen, Duitsland (10963): windrichting: 05.12.2018 17:00:00 - 11.12.2018 17:00:00 (CET)Garmisch-Partenkirchen, Duitsland (10963): luchtdruk: 05.12.2018 17:00:00 - 11.12.2018 17:00:00 (CET)Garmisch-Partenkirchen, Duitsland (10963): zicht: 05.12.2018 17:00:00 - 11.12.2018 17:00:00 (CET)Garmisch-Partenkirchen, Duitsland (10963): Zonneschijnduur: 05.12.2018 17:00:00 - 11.12.2018 17:00:00 (CET)Garmisch-Partenkirchen, Duitsland (10963): neerslag: 05.12.2018 17:00:00 - 11.12.2018 17:00:00 (CET)
Datum & Tijd tt [°C] td [°C] tt 5cm [°C] tt -5cm [°C] tt -20cm [°C] tt -100cm [°C] ff [km/u] ff [kn] fx [km/u] fx [kn] dd ppp [hPa] vv [km] sd [min] rr [mm]
11.12.2018 17:00:00 - - - - - - - - - - - - - - -
11.12.2018 16:00:00 0,0 -2,4 0,0 0,8 1,9 6,9 3 2 8 4 WNW 1024,4 65 0 0,0
11.12.2018 15:00:00 0,4 -2,2 0,0 0,8 1,9 6,9 2 1 17 9 NNW 1024,4 70 0 0,0
11.12.2018 14:00:00 0,8 -4,4 0,0 0,8 1,9 6,9 6 3 16 9 W 1024,2 70 1 0,0
11.12.2018 13:00:00 0,8 -3,5 0,0 0,8 1,9 6,9 5 3 16 9 ZZW 1024,4 75 11 0,0
11.12.2018 12:00:00 1,0 -3,5 0,0 0,8 2,0 6,9 5 3 14 8 ZZW 1024,8 75 16 0,0
11.12.2018 11:00:00 -0,6 -2,7 -0,1 0,8 2,0 6,9 9 5 22 12 WZW 1025,8 4,9 0 0,0
11.12.2018 10:00:00 -0,6 -2,5 -0,6 0,8 2,0 6,9 5 3 13 7 ZZW 1025,4 45 0 0,0
11.12.2018 09:00:00 -1,2 -2,1 -1,0 0,8 2,0 6,9 3 2 8 4 Z 1025,7 7 0 0,1
11.12.2018 08:00:00 -1,4 -2,0 -1,0 0,8 2,1 6,9 3 1 6 3 ZZW 1025,7 10 0 0,8
11.12.2018 07:00:00 -1,2 -2,2 -1,1 0,8 2,1 7,0 3 2 13 7 ZW 1025,7 2,3 0 0,4
11.12.2018 06:00:00 -1,1 -2,2 -1,3 0,8 2,1 7,0 4 2 11 6 N 1025,6 1,2 0 0,2
11.12.2018 05:00:00 -1,0 -1,8 -1,8 0,9 2,2 7,0 4 2 7 4 NNO 1025,3 9 0 0,0
11.12.2018 04:00:00 -1,4 -1,8 -2,2 0,9 2,2 7,0 3 2 7 4 WZW 1025,1 51 0 0,0
11.12.2018 03:00:00 -1,0 -1,9 -1,7 0,9 2,2 7,0 4 2 9 5 WZW 1025,0 47 0 0,1
11.12.2018 02:00:00 -0,7 -2,3 -1,1 0,9 2,3 7,0 3 2 16 8 NNO 1024,6 58 0 0,0
11.12.2018 01:00:00 -0,5 -1,5 -0,7 0,9 2,3 7,0 4 2 16 9 ZW 1024,3 11 0 2,8
11.12.2018 00:00:00 -0,6 -1,0 -0,8 0,9 2,4 7,0 14 8 35 19 NO 1024,1 0,2 0 1,8
10.12.2018 23:00:00 0,6 -0,9 -0,3 1,0 2,4 7,0 2 1 16 9 W 1022,4 5 0 0,8
10.12.2018 22:00:00 1,4 -2,3 -0,3 1,0 2,5 7,0 7 4 23 12 WZW 1022,7 6 0 0,1
10.12.2018 21:00:00 0,5 -0,4 -0,4 1,0 2,5 7,0 4 2 11 6 ZZW 1023,6 14 0 0,9
10.12.2018 20:00:00 0,4 -0,3 -0,1 1,1 2,6 7,0 5 3 17 9 NNO 1023,4 2,7 0 1,0
10.12.2018 19:00:00 0,3 -0,4 -0,3 1,1 2,7 7,0 4 2 12 6 ZZW 1023,4 6 0 0,1
10.12.2018 18:00:00 0,6 -1,0 -0,5 1,2 2,8 7,0 6 3 13 7 NNO 1023,1 52 0 0,0
10.12.2018 17:00:00 0,6 -0,3 -0,1 1,2 2,9 7,0 5 3 16 9 NNO 1023,7 45 0 0,0
10.12.2018 16:00:00 0,8 -0,7 0,0 1,3 3,0 7,0 4 2 13 7 ZO 1023,5 53 0 0,2
10.12.2018 15:00:00 0,7 0,0 0,0 1,4 3,1 7,0 4 2 11 6 NO 1024,0 12 0 1,1
10.12.2018 14:00:00 0,5 -0,3 0,0 1,8 3,2 7,0 3 1 10 6 ZW 1023,9 0,5 0 0,7
10.12.2018 13:00:00 1,1 0,3 0,4 1,7 3,3 7,0 6 4 11 6 ONO 1024,0 20 0 0,3
10.12.2018 12:00:00 1,2 -0,6 0,1 1,7 3,4 7,0 5 3 16 8 N 1024,1 7 0 0,9
10.12.2018 11:00:00 1,9 -1,1 0,7 2,3 3,5 7,0 6 4 32 17 W 1023,0 16 0 0,3
10.12.2018 10:00:00 3,0 -2,3 1,7 2,6 3,5 7,0 6 3 28 15 WZW 1022,3 21 0 0,0
10.12.2018 09:00:00 3,0 -2,0 1,5 2,4 3,6 7,0 6 3 22 12 W 1021,3 75 0 0,0
10.12.2018 08:00:00 2,4 -0,8 0,9 2,4 3,7 7,0 6 4 21 11 W 1021,0 52 0 0,0
10.12.2018 07:00:00 2,2 -0,3 0,8 2,5 3,8 7,0 6 3 27 15 W 1020,4 75 0 0,0
10.12.2018 06:00:00 2,5 0,0 1,1 2,8 3,9 7,0 5 3 20 11 W 1020,0 75 0 0,0
10.12.2018 05:00:00 2,4 1,2 1,5 3,0 4,0 7,0 4 2 14 7 NO 1019,9 42 0 0,6
10.12.2018 04:00:00 2,6 0,9 1,8 3,2 4,0 7,0 10 6 22 12 ZW 1019,4 7 0 0,7
10.12.2018 03:00:00 3,5 1,0 2,3 3,3 4,1 7,0 6 3 20 11 W 1018,5 29 0 0,2
10.12.2018 02:00:00 3,8 0,9 2,5 3,4 4,1 7,0 6 4 19 10 W 1017,1 39 0 0,0
10.12.2018 01:00:00 3,7 2,1 2,7 3,5 4,1 7,0 4 2 18 10 NW 1016,6 58 0 0,0
10.12.2018 00:00:00 3,8 2,6 3,0 3,6 4,2 7,0 5 3 15 8 ONO 1015,1 50 0 0,2
09.12.2018 23:00:00 3,7 2,5 2,9 3,7 4,2 7,1 4 2 21 11 NNO 1014,2 47 0 0,9
09.12.2018 22:00:00 4,2 2,1 3,1 3,7 4,2 7,1 7 4 20 11 W 1013,1 15 0 0,4
09.12.2018 21:00:00 4,6 2,0 3,3 3,7 4,3 7,1 8 4 21 11 W 1012,2 44 0 0,2
09.12.2018 20:00:00 3,8 2,2 2,9 3,7 4,3 7,1 8 5 23 12 W 1011,3 51 0 1,3
09.12.2018 19:00:00 3,6 2,1 2,8 3,8 4,4 7,1 8 4 17 9 WZW 1010,1 35 0 0,7
09.12.2018 18:00:00 3,3 2,7 2,8 3,9 4,4 7,1 5 3 23 12 ZW 1009,7 13 0 1,7
09.12.2018 17:00:00 3,8 2,1 3,0 4,1 4,5 7,1 7 4 23 12 WZW 1008,9 19 0 0,3
09.12.2018 16:00:00 3,3 2,3 2,8 4,3 4,5 7,1 7 4 23 12 ZZW 1008,9 43 0 1,2
09.12.2018 15:00:00 3,5 2,0 2,9 4,6 4,4 7,1 10 5 27 15 W 1008,7 6 0 0,5
09.12.2018 14:00:00 4,2 1,7 3,5 4,8 4,3 7,1 12 6 33 18 W 1008,2 48 0 0,2
09.12.2018 13:00:00 4,3 2,0 3,6 4,7 4,2 7,1 9 5 21 11 W 1008,8 75 0 0,3
09.12.2018 12:00:00 4,3 2,5 3,7 4,4 4,1 7,1 10 5 31 17 WZW 1009,6 9 0 0,1
09.12.2018 11:00:00 4,0 2,4 3,4 3,9 4,1 7,1 11 6 22 12 WZW 1010,2 13 0 1,3
09.12.2018 10:00:00 3,5 2,9 3,1 3,8 4,1 7,1 5 3 39 21 Z 1009,6 12 0 3,8
09.12.2018 09:00:00 4,9 2,8 3,9 3,9 4,0 7,1 9 5 23 12 ZZW 1008,1 6 0 1,5
09.12.2018 08:00:00 5,9 3,2 4,1 3,8 4,0 7,1 3 2 23 12 WNW 1005,5 22 0 0,4
09.12.2018 07:00:00 6,7 2,6 4,6 3,8 4,0 7,1 7 4 28 15 W 1004,3 75 0 0,3
09.12.2018 06:00:00 5,6 4,4 4,5 3,6 3,9 7,1 5 3 16 9 ZZO 1005,5 10 0 0,3
09.12.2018 05:00:00 5,1 4,0 4,2 3,5 3,9 7,1 3 2 16 9 ZO 1004,3 19 0 0,2
09.12.2018 04:00:00 5,4 3,5 3,5 3,4 3,9 7,1 7 4 12 7 O 1005,5 75 0 0,1
09.12.2018 03:00:00 5,4 2,2 3,6 3,2 3,9 7,1 4 2 13 7 NNO 1005,9 75 0 0,0
09.12.2018 02:00:00 5,2 2,6 3,6 3,1 3,9 7,1 4 2 16 9 NNW 1008,4 58 0 0,1
09.12.2018 01:00:00 5,9 1,5 4,2 3,1 3,9 7,1 3 2 19 10 N 1009,4 38 0 0,0
09.12.2018 00:00:00 7,4 0,1 5,1 3,1 4,0 7,1 9 5 24 13 WZW 1009,6 75 0 0,0
08.12.2018 23:00:00 4,9 -1,1 2,9 3,0 4,1 7,1 3 2 13 7 OZO 1011,4 75 0 0,0
08.12.2018 22:00:00 5,1 -1,3 2,2 3,1 4,1 7,1 4 2 14 7 ONO 1012,7 75 0 0,0
08.12.2018 21:00:00 4,7 -0,3 3,0 3,2 4,2 7,1 4 2 9 5 NNO 1013,9 63 0 0,0
08.12.2018 20:00:00 4,0 0,3 2,6 3,4 4,3 7,1 3 1 9 5 ZZO 1014,9 36 0 0,0
08.12.2018 19:00:00 4,9 0,0 3,3 3,7 4,4 7,1 4 2 15 8 N 1015,2 75 0 0,0
08.12.2018 18:00:00 5,3 -0,5 4,2 3,9 4,4 7,1 5 3 16 9 ZZW 1016,1 75 0 0,0
08.12.2018 17:00:00 5,9 -1,3 4,5 4,1 4,4 7,1 8 5 23 12 ZW 1016,3 75 0 0,0
08.12.2018 16:00:00 6,7 -2,6 5,6 4,6 4,3 7,1 9 5 23 12 W 1015,7 75 0 0,0
08.12.2018 15:00:00 7,3 -3,6 6,4 4,8 4,2 7,1 11 6 34 19 W 1015,0 71 0 0,0
08.12.2018 14:00:00 7,7 -5,1 6,9 5,0 3,9 7,1 17 9 40 22 WZW 1014,5 75 36 0,0
08.12.2018 13:00:00 8,0 -4,8 7,7 4,3 3,7 7,1 14 8 37 20 ZW 1015,1 73 25 0,0
08.12.2018 12:00:00 7,1 -4,5 6,3 3,4 3,6 7,1 11 6 34 19 ZW 1015,4 75 6 0,0
08.12.2018 11:00:00 6,0 -4,0 4,4 2,5 3,6 7,1 9 5 35 19 WZW 1016,7 75 5 0,0
08.12.2018 10:00:00 4,9 -4,6 2,0 1,7 3,7 7,1 9 5 29 16 WZW 1017,5 70 1 0,0
08.12.2018 09:00:00 1,8 -1,6 -1,1 1,7 4,0 7,1 4 2 10 5 ZO 1018,2 72 0 0,0
08.12.2018 08:00:00 2,4 -1,6 -1,1 2,1 4,2 7,1 3 2 10 5 ZW 1017,7 75 0 0,0
08.12.2018 07:00:00 4,0 -2,1 1,2 2,5 4,3 7,1 9 5 23 12 WZW 1017,0 75 0 0,0
08.12.2018 06:00:00 3,7 -1,8 0,8 2,9 4,5 7,1 6 3 23 12 W 1016,9 75 0 0,0
08.12.2018 05:00:00 3,5 -0,3 1,4 3,4 4,7 7,1 8 4 23 12 W 1016,5 64 0 0,0
08.12.2018 04:00:00 3,2 1,6 2,0 4,0 4,7 7,1 9 5 18 10 O 1016,1 75 0 0,3
08.12.2018 03:00:00 5,1 1,4 3,3 4,2 4,8 7,1 5 3 18 10 N 1014,9 41 0 0,0
08.12.2018 02:00:00 4,6 2,2 3,4 4,4 4,8 7,1 12 7 45 24 W 1013,6 27 0 1,0
08.12.2018 01:00:00 6,3 2,7 4,6 4,4 4,8 7,1 18 10 41 22 ZW 1011,5 20 0 0,5
08.12.2018 00:00:00 5,0 4,9 4,3 4,3 4,8 7,1 3 1 10 5 ZO 1009,6 8 0 0,1
07.12.2018 23:00:00 4,9 4,7 4,4 4,2 4,9 7,1 3 2 11 6 WZW 1010,1 19 0 0,9
07.12.2018 22:00:00 4,8 4,2 4,0 4,0 5,0 7,1 4 2 10 6 NNW 1011,1 38 0 0,0
07.12.2018 21:00:00 3,9 3,7 3,1 3,9 5,1 7,1 4 2 11 6 ZW 1011,2 25 0 0,0
07.12.2018 20:00:00 3,7 3,5 1,5 4,0 5,4 7,1 2 1 10 5 N 1010,6 29 0 0,0
07.12.2018 19:00:00 4,3 4,0 2,1 4,7 5,5 7,1 4 2 8 5 NNW 1009,7 28 0 0,0
07.12.2018 18:00:00 5,5 5,0 2,5 5,6 5,6 7,1 3 2 10 5 WZW 1010,4 35 0 0,0
07.12.2018 17:00:00 7,5 6,7 5,8 6,5 5,5 7,1 3 2 8 5 WZW 1011,2 55 0 0,0
07.12.2018 16:00:00 9,1 7,2 7,9 7,0 5,4 7,1 2 1 5 3 ONO 1011,2 68 0 0,0
07.12.2018 15:00:00 9,5 6,6 8,4 7,0 5,1 7,1 2 1 8 4 ZZW 1011,5 75 0 0,0
07.12.2018 14:00:00 10,0 5,7 8,6 6,9 4,8 7,1 4 2 7 4 Z 1012,9 75 0 0,0
07.12.2018 13:00:00 9,3 5,6 7,7 6,4 4,5 7,1 4 2 8 4 NNO 1014,6 75 0 0,0
07.12.2018 12:00:00 8,2 6,3 7,5 5,6 4,3 7,1 2 1 7 4 ZZW 1016,1 75 0 0,0
07.12.2018 11:00:00 6,6 6,1 6,2 4,6 4,1 7,1 3 1 5 3 W 1018,3 62 0 0,0
07.12.2018 10:00:00 5,3 4,9 5,0 3,9 4,0 7,0 2 1 6 3 W 1019,9 65 0 0,0
07.12.2018 09:00:00 4,4 4,1 4,2 3,4 4,0 7,0 2 1 6 3 Z 1021,0 28 0 0,0
07.12.2018 08:00:00 3,8 3,8 3,0 3,1 4,1 7,0 3 1 6 3 NW 1021,7 30 0 0,0
07.12.2018 07:00:00 3,5 3,4 2,6 3,0 4,1 7,0 3 2 7 4 NW 1022,1 45 0 0,0
07.12.2018 06:00:00 3,6 3,5 1,4 3,2 4,2 7,0 4 2 7 4 ZW 1022,2 33 0 0,0
07.12.2018 05:00:00 4,0 3,9 3,1 3,4 4,2 7,0 2 1 7 4 WNW 1022,5 42 0 0,0
07.12.2018 04:00:00 3,9 3,8 3,1 3,3 4,2 7,0 2 1 9 5 W 1023,3 26 0 0,0
07.12.2018 03:00:00 3,7 3,6 3,1 3,2 4,3 7,0 3 2 6 3 Z 1024,1 46 0 0,0
07.12.2018 02:00:00 3,1 3,0 2,0 3,0 4,4 7,0 3 2 7 4 Z 1024,9 10 0 0,0
07.12.2018 01:00:00 2,8 2,8 1,6 2,9 4,5 7,0 4 2 7 4 ZZW 1025,2 23 0 0,0
07.12.2018 00:00:00 2,4 2,4 1,0 2,8 4,7 7,0 3 2 7 4 W 1025,4 15 0 0,0
06.12.2018 23:00:00 2,3 2,3 0,2 3,1 4,9 7,0 3 2 6 4 ZW 1025,8 2,2 0 0,0
06.12.2018 22:00:00 2,7 2,6 0,8 3,5 5,1 7,0 3 2 7 4 ZW 1025,8 1,7 0 0,0
06.12.2018 21:00:00 3,4 3,3 1,2 4,0 5,3 7,0 3 2 7 4 W 1025,9 8 0 0,0
06.12.2018 20:00:00 4,7 4,6 2,5 4,7 5,4 7,0 3 2 11 6 WNW 1025,4 12 0 0,0
06.12.2018 19:00:00 5,5 5,2 2,6 5,1 5,5 7,0 2 1 8 4 NO 1024,6 16 0 0,0
06.12.2018 18:00:00 5,8 5,6 4,8 5,4 5,6 7,0 4 2 7 4 W 1024,5 19 0 0,0
06.12.2018 17:00:00 6,1 5,7 3,6 5,7 5,7 7,0 0 0 8 4 N 1023,5 44 0 0,0
06.12.2018 16:00:00 6,9 6,3 6,2 6,1 5,7 7,0 5 3 9 5 WZW 1022,9 62 0 0,0
06.12.2018 15:00:00 7,3 6,4 4,7 6,8 5,6 7,0 3 2 10 5 W 1021,8 70 17 0,0
06.12.2018 14:00:00 10,6 6,8 8,6 7,7 5,3 7,0 3 2 9 5 ZO 1020,9 75 21 0,0
06.12.2018 13:00:00 9,9 6,4 9,2 7,1 5,0 7,0 2 1 13 7 OZO 1021,7 64 29 0,0
06.12.2018 12:00:00 8,7 6,6 8,0 6,3 4,7 7,0 5 3 9 5 NO 1021,5 70 7 0,0
06.12.2018 11:00:00 7,7 7,0 7,4 5,5 4,5 7,0 0 0 6 3 N 1022,3 75 0 0,1
06.12.2018 10:00:00 6,7 6,4 6,3 4,6 4,4 7,0 0 0 5 3 N 1021,9 59 0 0,0
06.12.2018 09:00:00 5,8 5,7 4,9 4,2 4,4 7,0 2 1 5 3 WNW 1022,0 12 0 0,6
06.12.2018 08:00:00 5,5 5,3 4,8 4,1 4,4 7,0 2 1 5 3 NNO 1021,9 12 0 0,8
06.12.2018 07:00:00 5,1 4,9 4,3 3,9 4,5 7,0 4 2 9 5 WZW 1021,1 20 0 0,0
06.12.2018 06:00:00 5,1 4,9 3,5 4,0 4,5 7,0 6 3 10 5 ZW 1020,7 28 0 0,0
06.12.2018 05:00:00 5,4 5,2 4,7 4,2 4,5 7,0 3 2 8 4 NW 1020,9 22 0 0,3
06.12.2018 04:00:00 5,5 5,4 4,8 4,2 4,5 7,0 3 1 5 3 WNW 1021,4 18 0 0,3
06.12.2018 03:00:00 5,1 5,0 4,4 4,1 4,4 7,0 3 2 5 3 ZZO 1021,8 23 0 0,3
06.12.2018 02:00:00 4,6 4,4 4,2 3,9 4,5 7,0 2 1 7 4 W 1021,5 15 0 0,0
06.12.2018 01:00:00 4,2 4,0 3,6 3,8 4,5 7,0 3 1 9 5 W 1021,4 15 0 0,0
06.12.2018 00:00:00 4,2 3,9 3,1 3,9 4,5 6,9 3 2 11 6 ZZO 1021,9 18 0 0,0
05.12.2018 23:00:00 3,8 3,7 3,4 3,8 4,6 6,9 3 2 9 5 WNW 1022,5 14 0 0,0
05.12.2018 22:00:00 3,5 3,4 3,1 3,9 4,7 6,9 5 3 8 4 ZW 1023,2 4,3 0 0,1
05.12.2018 21:00:00 3,3 3,1 2,9 3,8 4,8 6,9 2 1 6 3 WZW 1023,7 10 0 0,1
05.12.2018 20:00:00 3,0 2,8 2,2 3,9 4,9 6,9 4 2 6 4 ZZW 1024,0 9 0 0,0
05.12.2018 19:00:00 3,0 2,8 1,4 4,2 5,1 6,9 4 2 8 4 ZW 1024,6 7 0 0,0
05.12.2018 18:00:00 3,6 3,4 2,9 4,6 5,2 6,9 2 1 6 3 ZW 1024,7 6 0 0,0
05.12.2018 17:00:00 4,1 3,5 1,7 5,2 5,2 6,9 4 2 6 3 ZW 1025,0 75 0 0,0

tt = temperatuur
td = dauwpunt
tt 5cm = temperatuur 5cm
tt -5cm = temperatuur -5cm
tt -20cm = temperatuur -20cm
tt -100cm = temperatuur -100cm
ff = windsnelheid
fx = windstoten
dd = windrichting
ppp = luchtdruk
vv = zicht
sd = Zonneschijnduur
rr = neerslag

Weerstations in de omgeving